Year,Month,Day,Hour,Minute,Value (Times are PST for temperature in C)
2002,04,02,00,00,3.70
2002,04,02,00,01,3.70
2002,04,02,00,02,3.70
2002,04,02,00,03,3.70
2002,04,02,00,04,3.70
2002,04,02,00,05,3.60
2002,04,02,00,06,3.60
2002,04,02,00,07,3.60
2002,04,02,00,08,3.50
2002,04,02,00,09,3.50
2002,04,02,00,10,3.50
2002,04,02,00,11,3.40
2002,04,02,00,12,3.40
2002,04,02,00,13,3.40
2002,04,02,00,14,3.40
2002,04,02,00,15,3.40
2002,04,02,00,16,3.40
2002,04,02,00,17,3.40
2002,04,02,00,18,3.30
2002,04,02,00,19,3.30
2002,04,02,00,20,3.30
2002,04,02,00,21,3.30
2002,04,02,00,22,3.30
2002,04,02,00,23,3.30
2002,04,02,00,24,3.40
2002,04,02,00,25,3.50
2002,04,02,00,26,3.50
2002,04,02,00,27,3.60
2002,04,02,00,28,3.70
2002,04,02,00,29,3.80
2002,04,02,00,30,3.80
2002,04,02,00,31,3.80
2002,04,02,00,32,3.80
2002,04,02,00,33,3.80
2002,04,02,00,34,3.80
2002,04,02,00,35,3.80
2002,04,02,00,36,3.70
2002,04,02,00,37,3.70
2002,04,02,00,38,3.60
2002,04,02,00,39,3.60
2002,04,02,00,40,3.50
2002,04,02,00,41,3.50
2002,04,02,00,42,3.40
2002,04,02,00,43,3.40
2002,04,02,00,44,3.30
2002,04,02,00,45,3.40
2002,04,02,00,46,3.50
2002,04,02,00,47,3.60
2002,04,02,00,48,3.80
2002,04,02,00,49,3.90
2002,04,02,00,50,4.10
2002,04,02,00,51,4.20
2002,04,02,00,52,4.40
2002,04,02,00,53,4.40
2002,04,02,00,54,4.50
2002,04,02,00,55,4.60
2002,04,02,00,56,4.60
2002,04,02,00,57,4.60
2002,04,02,00,58,4.60
2002,04,02,00,59,4.60
2002,04,02,01,00,4.60
2002,04,02,01,01,4.60
2002,04,02,01,02,4.60
2002,04,02,01,03,4.60
2002,04,02,01,04,4.60
2002,04,02,01,05,4.50
2002,04,02,01,06,4.50
2002,04,02,01,07,4.50
2002,04,02,01,08,4.50
2002,04,02,01,09,4.60
2002,04,02,01,10,4.60
2002,04,02,01,11,4.60
2002,04,02,01,12,4.60
2002,04,02,01,13,4.70
2002,04,02,01,14,4.70
2002,04,02,01,15,4.70
2002,04,02,01,16,4.70
2002,04,02,01,17,4.80
2002,04,02,01,18,4.80
2002,04,02,01,19,4.80
2002,04,02,01,20,4.80
2002,04,02,01,21,4.80
2002,04,02,01,22,4.80
2002,04,02,01,23,4.90
2002,04,02,01,24,4.90
2002,04,02,01,25,4.90
2002,04,02,01,26,4.90
2002,04,02,01,27,4.90
2002,04,02,01,28,4.90
2002,04,02,01,29,4.90
2002,04,02,01,30,4.90
2002,04,02,01,31,4.90
2002,04,02,01,32,4.90
2002,04,02,01,33,4.90
2002,04,02,01,34,4.90
2002,04,02,01,35,5.00
2002,04,02,01,36,5.10
2002,04,02,01,37,5.10
2002,04,02,01,38,5.10
2002,04,02,01,39,5.10
2002,04,02,01,40,5.10
2002,04,02,01,41,5.10
2002,04,02,01,42,5.10
2002,04,02,01,43,5.10
2002,04,02,01,44,5.10
2002,04,02,01,45,5.20
2002,04,02,01,46,5.10
2002,04,02,01,47,5.10
2002,04,02,01,48,5.10
2002,04,02,01,49,5.10
2002,04,02,01,50,5.10
2002,04,02,01,51,5.20
2002,04,02,01,52,5.20
2002,04,02,01,53,5.20
2002,04,02,01,54,5.30
2002,04,02,01,55,5.30
2002,04,02,01,56,5.30
2002,04,02,01,57,5.20
2002,04,02,01,58,5.30
2002,04,02,01,59,5.30
2002,04,02,02,00,5.30
2002,04,02,02,01,5.20
2002,04,02,02,02,5.20
2002,04,02,02,03,5.20
2002,04,02,02,04,5.20
2002,04,02,02,05,5.10
2002,04,02,02,06,5.10
2002,04,02,02,07,5.10
2002,04,02,02,08,5.10
2002,04,02,02,09,5.10
2002,04,02,02,10,5.10
2002,04,02,02,11,5.10
2002,04,02,02,12,5.10
2002,04,02,02,13,5.10
2002,04,02,02,14,5.10
2002,04,02,02,15,5.10
2002,04,02,02,16,5.20
2002,04,02,02,17,5.30
2002,04,02,02,18,5.30
2002,04,02,02,19,5.30
2002,04,02,02,20,5.40
2002,04,02,02,21,5.40
2002,04,02,02,22,5.40
2002,04,02,02,23,5.50
2002,04,02,02,24,5.60
2002,04,02,02,25,5.70
2002,04,02,02,26,5.80
2002,04,02,02,27,5.80
2002,04,02,02,28,5.90
2002,04,02,02,29,5.90
2002,04,02,02,30,6.00
2002,04,02,02,31,6.00
2002,04,02,02,32,6.00
2002,04,02,02,33,6.00
2002,04,02,02,34,6.00
2002,04,02,02,35,6.00
2002,04,02,02,36,6.00
2002,04,02,02,37,6.00
2002,04,02,02,38,6.00
2002,04,02,02,39,6.00
2002,04,02,02,40,5.90
2002,04,02,02,41,5.90
2002,04,02,02,42,5.90
2002,04,02,02,43,5.90
2002,04,02,02,44,5.90
2002,04,02,02,45,5.90
2002,04,02,02,46,5.80
2002,04,02,02,47,5.80
2002,04,02,02,48,5.80
2002,04,02,02,49,5.70
2002,04,02,02,50,5.70
2002,04,02,02,51,5.70
2002,04,02,02,52,5.70
2002,04,02,02,53,5.70
2002,04,02,02,54,5.70
2002,04,02,02,55,5.70
2002,04,02,02,56,5.70
2002,04,02,02,57,5.70
2002,04,02,02,58,5.70
2002,04,02,02,59,5.70
2002,04,02,03,00,5.70
2002,04,02,03,01,5.70
2002,04,02,03,02,5.70
2002,04,02,03,03,5.70
2002,04,02,03,04,5.70
2002,04,02,03,05,5.80
2002,04,02,03,06,5.90
2002,04,02,03,07,5.90
2002,04,02,03,08,6.00
2002,04,02,03,09,6.00
2002,04,02,03,10,6.00
2002,04,02,03,11,6.00
2002,04,02,03,12,6.00
2002,04,02,03,13,6.00
2002,04,02,03,14,6.00
2002,04,02,03,15,6.00
2002,04,02,03,16,6.00
2002,04,02,03,17,5.90
2002,04,02,03,18,5.90
2002,04,02,03,19,6.00
2002,04,02,03,20,6.00
2002,04,02,03,21,6.00
2002,04,02,03,22,6.10
2002,04,02,03,23,6.10
2002,04,02,03,24,6.10
2002,04,02,03,25,6.10
2002,04,02,03,26,6.10
2002,04,02,03,27,6.10
2002,04,02,03,28,6.10
2002,04,02,03,29,6.10
2002,04,02,03,30,6.10
2002,04,02,03,31,6.10
2002,04,02,03,32,6.10
2002,04,02,03,33,6.10
2002,04,02,03,34,6.10
2002,04,02,03,35,6.10
2002,04,02,03,36,6.10
2002,04,02,03,37,6.10
2002,04,02,03,38,6.10
2002,04,02,03,39,6.10
2002,04,02,03,40,6.10
2002,04,02,03,41,6.10
2002,04,02,03,42,6.10
2002,04,02,03,43,6.10
2002,04,02,03,44,6.20
2002,04,02,03,45,6.10
2002,04,02,03,46,6.10
2002,04,02,03,47,6.10
2002,04,02,03,48,6.10
2002,04,02,03,49,6.20
2002,04,02,03,50,6.20
2002,04,02,03,51,6.10
2002,04,02,03,52,6.10
2002,04,02,03,53,6.10
2002,04,02,03,54,6.10
2002,04,02,03,55,6.10
2002,04,02,03,56,6.10
2002,04,02,03,57,6.10
2002,04,02,03,58,6.10
2002,04,02,03,59,6.10
2002,04,02,04,00,6.10
2002,04,02,04,01,6.00
2002,04,02,04,02,6.00
2002,04,02,04,03,6.00
2002,04,02,04,04,6.00
2002,04,02,04,05,6.10
2002,04,02,04,06,6.10
2002,04,02,04,07,6.10
2002,04,02,04,08,6.10
2002,04,02,04,09,6.10
2002,04,02,04,10,6.10
2002,04,02,04,11,6.10
2002,04,02,04,12,6.10
2002,04,02,04,13,6.10
2002,04,02,04,14,6.00
2002,04,02,04,15,6.00
2002,04,02,04,16,6.10
2002,04,02,04,17,6.10
2002,04,02,04,18,6.10
2002,04,02,04,19,6.10
2002,04,02,04,20,6.10
2002,04,02,04,21,6.10
2002,04,02,04,22,6.10
2002,04,02,04,23,6.10
2002,04,02,04,24,6.10
2002,04,02,04,25,6.10
2002,04,02,04,26,6.10
2002,04,02,04,27,6.10
2002,04,02,04,28,6.10
2002,04,02,04,29,6.10
2002,04,02,04,30,6.10
2002,04,02,04,31,6.10
2002,04,02,04,32,6.10
2002,04,02,04,33,6.10
2002,04,02,04,34,6.10
2002,04,02,04,35,6.00
2002,04,02,04,36,6.00
2002,04,02,04,37,6.00
2002,04,02,04,38,6.00
2002,04,02,04,39,6.00
2002,04,02,04,40,6.00
2002,04,02,04,41,6.00
2002,04,02,04,42,6.00
2002,04,02,04,43,6.00
2002,04,02,04,44,6.00
2002,04,02,04,45,5.90
2002,04,02,04,46,5.90
2002,04,02,04,47,5.90
2002,04,02,04,48,6.00
2002,04,02,04,49,6.00
2002,04,02,04,50,5.90
2002,04,02,04,51,6.00
2002,04,02,04,52,5.90
2002,04,02,04,53,5.90
2002,04,02,04,54,5.90
2002,04,02,04,55,5.90
2002,04,02,04,56,5.90
2002,04,02,04,57,5.90
2002,04,02,04,58,5.90
2002,04,02,04,59,5.90
2002,04,02,05,00,5.90
2002,04,02,05,01,5.90
2002,04,02,05,02,5.90
2002,04,02,05,03,5.90
2002,04,02,05,04,5.90
2002,04,02,05,05,5.80
2002,04,02,05,06,5.80
2002,04,02,05,07,5.80
2002,04,02,05,08,5.80
2002,04,02,05,09,5.80
2002,04,02,05,10,5.80
2002,04,02,05,11,5.80
2002,04,02,05,12,5.80
2002,04,02,05,13,5.80
2002,04,02,05,14,5.80
2002,04,02,05,15,5.80
2002,04,02,05,16,5.80
2002,04,02,05,17,5.80
2002,04,02,05,18,5.80
2002,04,02,05,19,5.80
2002,04,02,05,20,5.80
2002,04,02,05,21,5.80
2002,04,02,05,22,5.80
2002,04,02,05,23,5.80
2002,04,02,05,24,5.80
2002,04,02,05,25,5.80
2002,04,02,05,26,5.80
2002,04,02,05,27,5.80
2002,04,02,05,28,5.70
2002,04,02,05,29,5.70
2002,04,02,05,30,5.70
2002,04,02,05,31,5.70
2002,04,02,05,32,5.70
2002,04,02,05,33,5.70
2002,04,02,05,34,5.70
2002,04,02,05,35,5.70
2002,04,02,05,36,5.70
2002,04,02,05,37,5.70
2002,04,02,05,38,5.70
2002,04,02,05,39,5.70
2002,04,02,05,40,5.70
2002,04,02,05,41,5.70
2002,04,02,05,42,5.70
2002,04,02,05,43,5.70
2002,04,02,05,44,5.70
2002,04,02,05,45,5.70
2002,04,02,05,46,5.70
2002,04,02,05,47,5.70
2002,04,02,05,48,5.70
2002,04,02,05,49,5.70
2002,04,02,05,50,5.70
2002,04,02,05,51,5.70
2002,04,02,05,52,5.70
2002,04,02,05,53,5.70
2002,04,02,05,54,5.70
2002,04,02,05,55,5.70
2002,04,02,05,56,5.70
2002,04,02,05,57,5.70
2002,04,02,05,58,5.70
2002,04,02,05,59,5.70
2002,04,02,06,00,5.70
2002,04,02,06,01,5.70
2002,04,02,06,02,5.70
2002,04,02,06,03,5.70
2002,04,02,06,04,5.70
2002,04,02,06,05,5.70
2002,04,02,06,06,5.70
2002,04,02,06,07,5.70
2002,04,02,06,08,5.70
2002,04,02,06,09,5.70
2002,04,02,06,10,5.70
2002,04,02,06,11,5.70
2002,04,02,06,12,5.70
2002,04,02,06,13,5.70
2002,04,02,06,14,5.70
2002,04,02,06,15,5.70
2002,04,02,06,16,5.70
2002,04,02,06,17,5.70
2002,04,02,06,18,5.70
2002,04,02,06,19,5.70
2002,04,02,06,20,5.70
2002,04,02,06,21,5.70
2002,04,02,06,22,5.70
2002,04,02,06,23,5.80
2002,04,02,06,24,5.70
2002,04,02,06,25,5.70
2002,04,02,06,26,5.70
2002,04,02,06,27,5.80
2002,04,02,06,28,5.80
2002,04,02,06,29,5.80
2002,04,02,06,30,5.80
2002,04,02,06,31,5.80
2002,04,02,06,32,5.80
2002,04,02,06,33,5.80
2002,04,02,06,34,5.80
2002,04,02,06,35,5.80
2002,04,02,06,36,5.80
2002,04,02,06,37,5.80
2002,04,02,06,38,5.80
2002,04,02,06,39,5.80
2002,04,02,06,40,5.80
2002,04,02,06,41,5.80
2002,04,02,06,42,5.80
2002,04,02,06,43,5.80
2002,04,02,06,44,5.80
2002,04,02,06,45,5.80
2002,04,02,06,46,5.80
2002,04,02,06,47,5.80
2002,04,02,06,48,5.80
2002,04,02,06,49,5.80
2002,04,02,06,50,5.80
2002,04,02,06,51,5.80
2002,04,02,06,52,5.80
2002,04,02,06,53,5.90
2002,04,02,06,54,5.90
2002,04,02,06,55,5.90
2002,04,02,06,56,5.90
2002,04,02,06,57,5.90
2002,04,02,06,58,6.00
2002,04,02,06,59,6.00
2002,04,02,07,00,6.00
2002,04,02,07,01,6.00
2002,04,02,07,02,6.10
2002,04,02,07,03,6.10
2002,04,02,07,04,6.10
2002,04,02,07,05,6.10
2002,04,02,07,06,6.00
2002,04,02,07,07,6.00
2002,04,02,07,08,6.00
2002,04,02,07,09,6.10
2002,04,02,07,10,6.10
2002,04,02,07,11,6.10
2002,04,02,07,12,6.10
2002,04,02,07,13,6.20
2002,04,02,07,14,6.20
2002,04,02,07,15,6.20
2002,04,02,07,16,6.20
2002,04,02,07,17,6.20
2002,04,02,07,18,6.20
2002,04,02,07,19,6.20
2002,04,02,07,20,6.20
2002,04,02,07,21,6.20
2002,04,02,07,22,6.20
2002,04,02,07,23,6.20
2002,04,02,07,24,6.20
2002,04,02,07,25,6.20
2002,04,02,07,26,6.20
2002,04,02,07,27,6.20
2002,04,02,07,28,6.20
2002,04,02,07,29,6.20
2002,04,02,07,30,6.20
2002,04,02,07,31,6.20
2002,04,02,07,32,6.20
2002,04,02,07,33,6.20
2002,04,02,07,34,6.20
2002,04,02,07,35,6.30
2002,04,02,07,36,6.30
2002,04,02,07,37,6.30
2002,04,02,07,38,6.30
2002,04,02,07,39,6.30
2002,04,02,07,40,6.30
2002,04,02,07,41,6.30
2002,04,02,07,42,6.40
2002,04,02,07,43,6.40
2002,04,02,07,44,6.40
2002,04,02,07,45,6.40
2002,04,02,07,46,6.40
2002,04,02,07,47,6.30
2002,04,02,07,48,6.30
2002,04,02,07,49,6.40
2002,04,02,07,50,6.40
2002,04,02,07,51,6.40
2002,04,02,07,52,6.40
2002,04,02,07,53,6.40
2002,04,02,07,54,6.40
2002,04,02,07,55,6.40
2002,04,02,07,56,6.50
2002,04,02,07,57,6.60
2002,04,02,07,58,6.60
2002,04,02,07,59,6.60
2002,04,02,08,00,6.60
2002,04,02,08,01,6.60
2002,04,02,08,02,6.60
2002,04,02,08,03,6.60
2002,04,02,08,04,6.60
2002,04,02,08,05,6.70
2002,04,02,08,06,6.70
2002,04,02,08,07,6.70
2002,04,02,08,08,6.60
2002,04,02,08,09,6.70
2002,04,02,08,10,6.70
2002,04,02,08,11,6.70
2002,04,02,08,12,6.70
2002,04,02,08,13,6.70
2002,04,02,08,14,6.80
2002,04,02,08,15,6.80
2002,04,02,08,16,6.80
2002,04,02,08,17,6.80
2002,04,02,08,18,6.80
2002,04,02,08,19,6.90
2002,04,02,08,20,6.90
2002,04,02,08,21,6.80
2002,04,02,08,22,6.90
2002,04,02,08,23,6.90
2002,04,02,08,24,6.90
2002,04,02,08,25,6.90
2002,04,02,08,26,6.90
2002,04,02,08,27,6.90
2002,04,02,08,28,6.90
2002,04,02,08,29,6.90
2002,04,02,08,30,6.90
2002,04,02,08,31,6.90
2002,04,02,08,32,6.90
2002,04,02,08,33,6.90
2002,04,02,08,34,6.80
2002,04,02,08,35,6.80
2002,04,02,08,36,6.90
2002,04,02,08,37,7.00
2002,04,02,08,38,7.10
2002,04,02,08,39,7.10
2002,04,02,08,40,7.10
2002,04,02,08,41,7.10
2002,04,02,08,42,7.10
2002,04,02,08,43,7.00
2002,04,02,08,44,7.00
2002,04,02,08,45,7.10
2002,04,02,08,46,7.00
2002,04,02,08,47,6.90
2002,04,02,08,48,6.90
2002,04,02,08,49,7.00
2002,04,02,08,50,7.00
2002,04,02,08,51,7.00
2002,04,02,08,52,7.00
2002,04,02,08,53,7.00
2002,04,02,08,54,7.00
2002,04,02,08,55,7.00
2002,04,02,08,56,7.10
2002,04,02,08,57,7.10
2002,04,02,08,58,7.10
2002,04,02,08,59,7.10
2002,04,02,09,00,7.10
2002,04,02,09,01,7.10
2002,04,02,09,02,7.10
2002,04,02,09,03,7.10
2002,04,02,09,04,7.20
2002,04,02,09,05,7.30
2002,04,02,09,06,7.20
2002,04,02,09,07,7.20
2002,04,02,09,08,7.20
2002,04,02,09,09,7.10
2002,04,02,09,10,7.10
2002,04,02,09,11,7.00
2002,04,02,09,12,7.10
2002,04,02,09,13,7.10
2002,04,02,09,14,7.20
2002,04,02,09,15,7.20
2002,04,02,09,16,7.10
2002,04,02,09,17,7.00
2002,04,02,09,18,7.00
2002,04,02,09,19,7.10
2002,04,02,09,20,7.20
2002,04,02,09,21,7.20
2002,04,02,09,22,7.20
2002,04,02,09,23,7.20
2002,04,02,09,24,7.20
2002,04,02,09,25,7.30
2002,04,02,09,26,7.30
2002,04,02,09,27,7.30
2002,04,02,09,28,7.40
2002,04,02,09,29,7.30
2002,04,02,09,30,7.30
2002,04,02,09,31,7.30
2002,04,02,09,32,7.30
2002,04,02,09,33,7.30
2002,04,02,09,34,7.30
2002,04,02,09,35,7.30
2002,04,02,09,36,7.30
2002,04,02,09,37,7.30
2002,04,02,10,13,7.40
2002,04,02,10,14,7.50
2002,04,02,10,15,7.60
2002,04,02,10,16,7.60
2002,04,02,10,18,7.70
2002,04,02,10,19,7.70
2002,04,02,10,20,7.80
2002,04,02,10,21,7.80
2002,04,02,10,22,7.80
2002,04,02,10,23,7.80
2002,04,02,10,24,7.80
2002,04,02,10,25,7.80
2002,04,02,10,26,7.90
2002,04,02,10,27,7.90
2002,04,02,10,28,7.90
2002,04,02,10,29,7.90
2002,04,02,10,30,7.90
2002,04,02,10,31,8.00
2002,04,02,10,32,8.10
2002,04,02,10,33,8.10
2002,04,02,10,34,8.20
2002,04,02,10,35,8.20
2002,04,02,10,36,8.20
2002,04,02,10,37,8.30
2002,04,02,10,38,8.30
2002,04,02,10,39,8.30
2002,04,02,10,40,8.30
2002,04,02,10,41,8.30
2002,04,02,10,42,8.20
2002,04,02,10,43,8.20
2002,04,02,10,44,8.20
2002,04,02,10,45,8.10
2002,04,02,10,46,8.00
2002,04,02,10,47,7.90
2002,04,02,10,48,7.80
2002,04,02,10,49,7.80
2002,04,02,10,50,7.90
2002,04,02,10,51,8.00
2002,04,02,10,52,8.00
2002,04,02,10,53,8.00
2002,04,02,10,54,8.00
2002,04,02,10,55,8.00
2002,04,02,10,56,8.10
2002,04,02,10,57,8.20
2002,04,02,10,58,8.20
2002,04,02,10,59,8.20
2002,04,02,11,00,8.20
2002,04,02,11,01,8.20
2002,04,02,11,02,8.10
2002,04,02,11,03,8.10
2002,04,02,11,04,8.20
2002,04,02,11,05,8.20
2002,04,02,11,06,8.20
2002,04,02,11,07,8.20
2002,04,02,11,08,8.20
2002,04,02,11,09,8.30
2002,04,02,11,10,8.30
2002,04,02,11,11,8.30
2002,04,02,11,12,8.20
2002,04,02,11,13,8.30
2002,04,02,11,14,8.30
2002,04,02,11,15,8.30
2002,04,02,11,16,8.20
2002,04,02,11,17,8.20
2002,04,02,11,18,8.20
2002,04,02,11,19,8.20
2002,04,02,11,20,8.20
2002,04,02,11,21,8.20
2002,04,02,11,22,8.20
2002,04,02,11,23,8.20
2002,04,02,11,24,8.20
2002,04,02,11,25,8.20
2002,04,02,11,26,8.40
2002,04,02,11,27,8.40
2002,04,02,11,28,8.50
2002,04,02,11,29,8.50
2002,04,02,11,30,8.50
2002,04,02,11,31,8.40
2002,04,02,11,32,8.40
2002,04,02,11,33,8.50
2002,04,02,11,34,8.50
2002,04,02,11,35,8.50
2002,04,02,11,36,8.50
2002,04,02,11,37,8.40
2002,04,02,11,38,8.40
2002,04,02,11,39,8.50
2002,04,02,11,40,8.50
2002,04,02,11,41,8.50
2002,04,02,11,42,8.60
2002,04,02,11,43,8.50
2002,04,02,11,44,8.40
2002,04,02,11,45,8.50
2002,04,02,11,46,8.60
2002,04,02,11,47,8.60
2002,04,02,11,48,8.60
2002,04,02,13,08,9.20
2002,04,02,13,09,9.30
2002,04,02,13,10,9.30
2002,04,02,13,11,9.30
2002,04,02,13,12,9.30
2002,04,02,13,13,9.20
2002,04,02,13,14,9.20
2002,04,02,13,15,9.20
2002,04,02,13,16,9.30
2002,04,02,13,17,9.30
2002,04,02,13,18,9.30
2002,04,02,13,19,9.30
2002,04,02,13,20,9.20
2002,04,02,13,21,9.20
2002,04,02,13,22,9.20
2002,04,02,13,23,9.30
2002,04,02,13,24,9.30
2002,04,02,13,25,9.30
2002,04,02,13,26,9.20
2002,04,02,13,27,9.20
2002,04,02,13,28,9.20
2002,04,02,13,29,9.30
2002,04,02,13,30,9.40
2002,04,02,13,31,9.40
2002,04,02,13,32,9.50
2002,04,02,13,33,9.60
2002,04,02,13,34,9.50
2002,04,02,13,35,9.50
2002,04,02,13,36,9.50
2002,04,02,13,37,9.50
2002,04,02,13,38,9.50
2002,04,02,13,39,9.50
2002,04,02,13,40,9.60
2002,04,02,13,41,9.70
2002,04,02,13,42,9.70
2002,04,02,13,43,9.70
2002,04,02,13,44,9.70
2002,04,02,13,45,9.70
2002,04,02,13,46,9.70
2002,04,02,13,47,9.70
2002,04,02,13,48,9.70
2002,04,02,13,49,9.70
2002,04,02,13,50,9.70
2002,04,02,13,51,9.60
2002,04,02,13,52,9.60
2002,04,02,13,53,9.60
2002,04,02,13,54,9.60
2002,04,02,13,55,9.70
2002,04,02,13,56,9.70
2002,04,02,13,57,9.70
2002,04,02,13,58,9.70
2002,04,02,13,59,9.70
2002,04,02,14,00,9.70
2002,04,02,14,01,9.80
2002,04,02,14,02,9.80
2002,04,02,14,03,9.80
2002,04,02,14,04,9.80
2002,04,02,14,05,9.80
2002,04,02,14,06,9.80
2002,04,02,14,07,9.80
2002,04,02,14,08,9.80
2002,04,02,14,09,9.80
2002,04,02,14,10,9.90
2002,04,02,14,11,9.90
2002,04,02,14,12,10.00
2002,04,02,14,13,10.10
2002,04,02,14,14,10.10
2002,04,02,14,15,10.10
2002,04,02,14,16,10.10
2002,04,02,14,17,10.00
2002,04,02,14,18,10.10
2002,04,02,14,19,10.00
2002,04,02,14,20,9.90
2002,04,02,14,21,9.90
2002,04,02,14,22,9.80
2002,04,02,14,23,9.80
2002,04,02,14,24,9.80
2002,04,02,14,25,9.90
2002,04,02,14,26,9.90
2002,04,02,14,27,9.90
2002,04,02,14,28,9.90
2002,04,02,14,29,9.90
2002,04,02,14,30,10.10
2002,04,02,14,31,10.10
2002,04,02,14,32,10.10
2002,04,02,14,33,10.10
2002,04,02,14,34,10.00
2002,04,02,14,35,9.90
2002,04,02,14,36,9.80
2002,04,02,14,37,9.70
2002,04,02,14,38,9.80
2002,04,02,14,39,9.80
2002,04,02,14,40,9.80
2002,04,02,14,41,9.90
2002,04,02,14,42,10.00
2002,04,02,14,43,10.10
2002,04,02,14,44,10.10
2002,04,02,14,45,10.10
2002,04,02,14,46,10.10
2002,04,02,14,47,10.10
2002,04,02,14,48,10.10
2002,04,02,14,49,10.10
2002,04,02,14,50,10.00
2002,04,02,14,51,9.90
2002,04,02,14,52,9.90
2002,04,02,14,53,9.90
2002,04,02,14,54,9.80
2002,04,02,14,55,9.90
2002,04,02,14,56,10.00
2002,04,02,14,57,10.10
2002,04,02,14,58,10.10
2002,04,02,14,59,10.00
2002,04,02,15,00,9.90
2002,04,02,15,01,9.90
2002,04,02,15,02,9.90
2002,04,02,15,03,9.90
2002,04,02,15,04,10.00
2002,04,02,15,05,10.10
2002,04,02,15,06,10.00
2002,04,02,15,07,10.00
2002,04,02,15,08,10.00
2002,04,02,15,09,10.00
2002,04,02,15,10,9.90
2002,04,02,15,11,10.00
2002,04,02,15,12,10.10
2002,04,02,15,13,10.10
2002,04,02,15,14,10.10
2002,04,02,15,15,10.10
2002,04,02,15,16,10.20
2002,04,02,15,17,10.20
2002,04,02,15,18,10.20
2002,04,02,15,19,10.20
2002,04,02,15,20,10.20
2002,04,02,15,21,10.20
2002,04,02,15,22,10.20
2002,04,02,15,23,10.10
2002,04,02,15,24,10.10
2002,04,02,15,25,10.10
2002,04,02,15,26,10.10
2002,04,02,15,27,10.10
2002,04,02,15,28,10.10
2002,04,02,15,29,10.10
2002,04,02,15,30,10.00
2002,04,02,15,31,9.90
2002,04,02,15,32,10.00
2002,04,02,15,33,10.10
2002,04,02,15,34,10.10
2002,04,02,15,35,10.20
2002,04,02,15,36,10.20
2002,04,02,15,37,10.20
2002,04,02,15,38,10.20
2002,04,02,15,39,10.20
2002,04,02,15,40,10.20
2002,04,02,15,41,10.20
2002,04,02,15,42,10.30
2002,04,02,15,43,10.30
2002,04,02,15,44,10.40
2002,04,02,15,45,10.40
2002,04,02,15,46,10.30
2002,04,02,15,47,10.40
2002,04,02,15,48,10.40
2002,04,02,15,49,10.40
2002,04,02,15,50,10.40
2002,04,02,15,51,10.50
2002,04,02,15,52,10.60
2002,04,02,15,53,10.70
2002,04,02,15,54,10.60
2002,04,02,15,55,10.60
2002,04,02,15,56,10.60
2002,04,02,15,57,10.60
2002,04,02,15,58,10.70
2002,04,02,15,59,10.70
2002,04,02,16,00,10.80
2002,04,02,16,01,10.80
2002,04,02,16,02,10.90
2002,04,02,16,03,10.80
2002,04,02,16,04,10.70
2002,04,02,16,05,10.80
2002,04,02,16,06,10.80
2002,04,02,16,07,10.80
2002,04,02,16,08,10.70
2002,04,02,16,09,10.50
2002,04,02,16,10,10.50
2002,04,02,16,11,10.50
2002,04,02,16,12,10.50
2002,04,02,16,13,10.40
2002,04,02,16,14,10.30
2002,04,02,16,15,10.30
2002,04,02,16,16,10.30
2002,04,02,16,17,10.30
2002,04,02,16,18,10.40
2002,04,02,16,19,10.50
2002,04,02,16,20,10.60
2002,04,02,16,21,10.60
2002,04,02,16,22,10.70
2002,04,02,16,23,10.70
2002,04,02,16,24,10.70
2002,04,02,16,25,10.70
2002,04,02,16,26,10.70
2002,04,02,16,27,10.70
2002,04,02,16,28,10.70
2002,04,02,16,29,10.60
2002,04,02,16,30,10.70
2002,04,02,16,31,10.70
2002,04,02,16,32,10.70
2002,04,02,16,33,10.70
2002,04,02,16,34,10.80
2002,04,02,16,35,10.80
2002,04,02,16,36,10.90
2002,04,02,16,37,10.90
2002,04,02,16,38,10.90
2002,04,02,16,39,10.90
2002,04,02,16,40,10.90
2002,04,02,16,41,10.90
2002,04,02,16,42,10.90
2002,04,02,16,43,10.90
2002,04,02,16,44,10.80
2002,04,02,16,45,10.80
2002,04,02,16,46,10.60
2002,04,02,16,47,10.60
2002,04,02,16,48,10.70
2002,04,02,16,49,10.70
2002,04,02,16,50,10.80
2002,04,02,16,51,10.80
2002,04,02,16,52,10.70
2002,04,02,16,53,10.70
2002,04,02,16,54,10.70
2002,04,02,16,55,10.70
2002,04,02,16,56,10.70
2002,04,02,16,57,10.60
2002,04,02,16,58,10.60
2002,04,02,16,59,10.60
2002,04,02,17,00,10.70
2002,04,02,17,01,10.70
2002,04,02,17,02,10.80
2002,04,02,17,03,10.80
2002,04,02,17,04,10.80
2002,04,02,17,05,10.80
2002,04,02,17,06,10.80
2002,04,02,17,07,10.90
2002,04,02,17,08,10.90
2002,04,02,17,09,10.90
2002,04,02,17,10,10.90
2002,04,02,17,11,10.90
2002,04,02,17,12,10.90
2002,04,02,17,13,10.90
2002,04,02,17,14,10.90
2002,04,02,17,15,10.90
2002,04,02,17,16,10.90
2002,04,02,17,17,10.90
2002,04,02,17,18,10.90
2002,04,02,17,19,10.90
2002,04,02,17,20,10.90
2002,04,02,17,21,10.90
2002,04,02,17,22,10.80
2002,04,02,17,23,10.70
2002,04,02,17,24,10.70
2002,04,02,17,25,10.70
2002,04,02,17,26,10.70
2002,04,02,17,27,10.70
2002,04,02,17,28,10.80
2002,04,02,17,29,10.90
2002,04,02,17,30,10.90
2002,04,02,17,31,10.80
2002,04,02,17,32,10.80
2002,04,02,17,33,10.70
2002,04,02,17,34,10.70
2002,04,02,17,35,10.60
2002,04,02,17,36,10.60
2002,04,02,17,37,10.60
2002,04,02,17,38,10.60
2002,04,02,17,39,10.60
2002,04,02,17,40,10.60
2002,04,02,17,41,10.50
2002,04,02,17,42,10.40
2002,04,02,17,43,10.40
2002,04,02,17,44,10.40
2002,04,02,17,45,10.40
2002,04,02,17,46,10.40
2002,04,02,17,47,10.40
2002,04,02,17,48,10.40
2002,04,02,17,49,10.40
2002,04,02,17,50,10.40
2002,04,02,17,51,10.30
2002,04,02,17,52,10.30
2002,04,02,17,53,10.30
2002,04,02,17,54,10.30
2002,04,02,17,55,10.30
2002,04,02,17,56,10.30
2002,04,02,17,57,10.30
2002,04,02,17,58,10.30
2002,04,02,17,59,10.20
2002,04,02,18,00,10.20
2002,04,02,18,01,10.10
2002,04,02,18,02,10.10
2002,04,02,18,03,10.10
2002,04,02,18,04,10.10
2002,04,02,18,05,10.10
2002,04,02,18,06,10.10
2002,04,02,18,07,10.00
2002,04,02,18,08,9.90
2002,04,02,18,09,9.90
2002,04,02,18,10,9.90
2002,04,02,18,11,9.90
2002,04,02,18,12,9.90
2002,04,02,18,13,9.80
2002,04,02,18,14,9.80
2002,04,02,18,15,9.80
2002,04,02,18,16,9.80
2002,04,02,18,17,9.70
2002,04,02,18,18,9.70
2002,04,02,18,19,9.70
2002,04,02,18,20,9.70
2002,04,02,18,21,9.70
2002,04,02,18,22,9.70
2002,04,02,18,23,9.60
2002,04,02,18,24,9.60
2002,04,02,18,25,9.60
2002,04,02,18,26,9.50
2002,04,02,18,27,9.50
2002,04,02,18,28,9.50
2002,04,02,18,29,9.50
2002,04,02,18,30,9.50
2002,04,02,18,31,9.40
2002,04,02,18,32,9.40
2002,04,02,18,33,9.40
2002,04,02,18,34,9.40
2002,04,02,18,35,9.30
2002,04,02,18,36,9.30
2002,04,02,18,37,9.30
2002,04,02,18,38,9.20
2002,04,02,18,39,9.20
2002,04,02,18,40,9.20
2002,04,02,18,41,9.20
2002,04,02,18,42,9.10
2002,04,02,18,43,9.10
2002,04,02,18,44,9.10
2002,04,02,18,45,9.10
2002,04,02,18,46,9.10
2002,04,02,18,47,9.10
2002,04,02,18,48,9.00
2002,04,02,18,49,9.00
2002,04,02,18,50,9.00
2002,04,02,18,51,8.90
2002,04,02,18,52,8.90
2002,04,02,18,53,8.90
2002,04,02,18,54,8.90
2002,04,02,18,55,8.80
2002,04,02,18,56,8.80
2002,04,02,18,57,8.80
2002,04,02,18,58,8.80
2002,04,02,18,59,8.80
2002,04,02,19,00,8.90
2002,04,02,19,01,8.90
2002,04,02,19,02,9.00
2002,04,02,19,03,9.00
2002,04,02,19,04,9.10
2002,04,02,19,05,9.10
2002,04,02,19,06,9.20
2002,04,02,19,07,9.20
2002,04,02,19,08,9.20
2002,04,02,19,09,9.30
2002,04,02,19,10,9.30
2002,04,02,19,11,9.30
2002,04,02,19,12,9.40
2002,04,02,19,13,9.30
2002,04,02,19,14,9.40
2002,04,02,19,15,9.30
2002,04,02,19,16,9.30
2002,04,02,19,17,9.30
2002,04,02,19,18,9.20
2002,04,02,19,19,9.10
2002,04,02,19,20,9.00
2002,04,02,19,21,8.90
2002,04,02,19,22,8.90
2002,04,02,19,23,8.80
2002,04,02,19,24,8.70
2002,04,02,19,25,8.70
2002,04,02,19,26,8.60
2002,04,02,19,27,8.50
2002,04,02,19,28,8.50
2002,04,02,19,29,8.40
2002,04,02,19,30,8.40
2002,04,02,19,31,8.40
2002,04,02,19,32,8.30
2002,04,02,19,33,8.30
2002,04,02,19,34,8.20
2002,04,02,19,35,8.20
2002,04,02,19,36,8.10
2002,04,02,19,37,8.10
2002,04,02,19,38,8.00
2002,04,02,19,39,8.00
2002,04,02,19,40,8.00
2002,04,02,19,41,8.00
2002,04,02,19,42,8.00
2002,04,02,19,43,8.10
2002,04,02,19,44,8.10
2002,04,02,19,45,8.20
2002,04,02,19,46,8.20
2002,04,02,19,47,8.20
2002,04,02,19,48,8.20
2002,04,02,19,49,8.20
2002,04,02,19,50,8.20
2002,04,02,19,51,8.20
2002,04,02,19,52,8.20